Погода в Романовке

Погода в Романовке : погода сейчас, прогноз погоды и архив. Всё, что Вы хотите узнать о погоде в Романовке!

Поиск расширенной информации на нашем сайте:

Другие новости

Новости СМИ2

Главная страница сайта

Новости сайта

03.07.2017

Напоминаем, что на нашем специализированном сайте Метеоцентр.Азия вы можете получить высокодетализированные автоматические прогнозы погоды по пунктам России, СНГ и мира в авиационном формате (включающие направление и скорость ветра, видимость, явления погоды, количество и форму облачности, нижнюю и верхнюю границу облачности).


Погода в Романовке - сегодня

Время (UTC), дата Ветер
(°,м/с) 
Видим.   Явления Облачность Т
(°С)
Тd
(°С)
f(%) Тe
(°С)
Pmin
(гПа)
dP
(гПа)
Po
(мм)
O2
(г/м3)
Тmin Tmax R s Состояние
почвы
00 21.02.18 тихо ()   20000 м    5/0 средняя, верхняя 
[Ac lent|Ci fib]
-30.9 -34.7 69 -31  1027.5  0.2  678  310  -31.1      15  равномерный
сухой снег
100% 
03 21.02.18 220 (ЮЗ) 20000 м    3/0 верхняя 
[Ci fib]
-18.9 -23.4 68 -19  1021.7  0.3  678  295  -31.8         
06 21.02.18 320 (СЗ) 20000 м    10/5 600 м кучево-дожд., верхняя 
[Cb cap|Ci fib]
-13.1 -25.1 36 -18  1017.6  -1.2  677  288           
09 21.02.18 350 (С) 20000 м    10/3 600 м кучево-дожд., верхняя 
[Cb cap|Ci fib]
-13.9 -23.7 43 -17  1018.4  0.4  677  289           
15 21.02.18 тихо ()   н/о    ясно 
-26.1 -30.8 65 -26  1025.1  678  304           
18 21.02.18 010 (С) н/о    ясно 
-30.3 -33.7 72 -31  1027.2  -0.1  678  309           
21 21.02.18 050 (СВ) н/о    ясно 
-33.1 -36.8 69 -34  1028.5  -0.2  678  313           
03 22.02.18 тихо ()   20000 м    ясно 
-25 -32.8 48 -25  1024.3  -0.2  678  302           
06 22.02.18 100 (В) 20000 м    ясно 
-15.7 -28.1 34 -18  1018.7  -0.9  677  291           
09 22.02.18 160 (Ю) 20000 м    3/0 средняя, верхняя 
[Ac lent|Ci fib]
-15.2 -28.1 32 -15  1018.9  0.4  677  291           
12 22.02.18 040 (СВ) н/о    ясно 
-23.2 -30.4 52 -24  1024.6  1.6  679  300    -13.9       
15 22.02.18 тихо ()   н/о    ясно 
-28.1 -32.9 63 -28  1029  1.6  680  307           
18 22.02.18 тихо ()   н/о    ясно 
-32.9 -36.6 70 -33  1033.1  1.4  681  314           
21 22.02.18 тихо ()   н/о    ясно 
-35.1 -39.2 66 -35  1036.2  1.6  682  317           
03 23.02.18 230 (ЮЗ) 20000 м    5/0 верхняя 
[Ci fib]
-24.7 -31 56 -28  1033.9  1.1  684  305           
06 23.02.18 220 (ЮЗ) 20000 м    5/0 верхняя 
[Ci fib]
-15.5 -26 40 -19  1028.7  -0.5  684  294           
09 23.02.18 240 (ЮЗ) 20000 м    5/0 верхняя 
[Ci fib]
-14.6 -25.7 38 -15  1028.7  0.3  684  293           
12 23.02.18 тихо ()   н/о    ясно 
-20.6 -26.8 58 -21  1032.3  0.6  685  300    -14       
15 23.02.18 тихо ()   н/о    ясно 
-27.5 -32 65 -28  1035.9  685  308           
18 23.02.18 тихо ()   н/о    8/0 средняя, верхняя 
[Ac lent|Ci fib]
-30.5 -34.1 71 -31  1036.8  -0.6  684  312           
21 23.02.18 020 (С) н/о    5/0 средняя 
[Ac lent]
-34.1 -38 68 -35  1038.4  -0.4  684  317           
00 24.02.18 тихо ()   20000 м    3/0 средняя, верхняя 
[Ac lent|Ci fib]
-35.6 -39.9 65 -36  1039.1  -0.1  684  319  -35.7      15  равномерный
сухой снег
100% 
03 24.02.18 тихо ()   20000 м    8/0 верхняя 
[Ci fib]
-24.4 -32.1 49 -24  1032.7  -0.3  684  304           
06 24.02.18 050 (СВ) 20000 м    5/0 верхняя 
[Ci fib]
-14.7 -23.5 47 -15  1026.3  -1.4  683  292           
09 24.02.18 210 (ЮЗ) 20000 м    3/0 верхняя 
[Ci fib]
-12.7 -22.5 44 -13  1024.7  -0.6  682  290           
Время (UTC), дата Ветер
(°,м/с) 
Видим.   Явления Облачность Т
(°С)
Тd
(°С)
f(%) Тe
(°С)
Pmin
(гПа)
dP
(гПа)
Po
(мм)
O2
(г/м3)
Тmin Tmax R s Состояние
почвы

Для получения пояснительной информации подведите курсор к названию столбца.

ПОГОДА в Романовке - архив

Всё, что Вы хотите узнать о погоде в Романовке - удобно и подробно!

Выберите нужную дату (начиная с 1 января 2015* года) и нажмите кнопку "Найти".
Будут отображены архивные сводки погоды по пункту Романовка, начиная с указанной даты.


Отображать данные в формате CSV (для использования в таблицах Excel)


Внимание! Наш архив погоды предназначен исключительно для личного некоммерческого использования в познавательных целях. Если Вам необходимы официальные справки о состоянии погоды (для производственных, юридических, коммерческих и т.п. целей), обращайтесь в органы Росгидромета.

*Примечание: данная дата относится к архиву по метеостанциям СССР (Россия, СНГ, Балтия).
Архив по метеостанциям Зарубежной Европы и Азии (кроме Китая) хранится 10 дней, по другим регионам земного шара (Китай, Африка, Америка, Австралия, Океания) - 1 день.

Романовка - район местоположения метеостанции


Название, широта, долгота, высота метеостанции:
Романовка 53.2°ш. 112.8°д. 923 м над ур. моря [Российская Федерация]

Дополнительная информация

В oтличие oт бoльшинства пoгoдных сайтoв мы публикуем пoдрoбную метеoинфoрмацию в детальнoм прoфессиoнальнoм фoрмате.

Характеристики температуры и влажнoсти вoздуха измеряются на высoте 2 м в тени вдали oт зданий и деревьев.
Скoрoсть ветра измеряется на высoте 10 м (на урoвне рoста челoвека скoрoсть ветра ниже в 1.5-2 раза). Если метеoстанция нахoдится в гoрoде или в лесу, тo скoрoсть ветра занижена на 2-4 м/с пo сравнению с oткрытым местoм. Скoрoсть ветра над акватoриями крупных рек и oзёр, а также на вершинах хoлмoв на 2-5 м/с выше, чем в oбычных услoвиях.
Атмoсфернoе давление в разных тoчках местнoсти мoжет значительнo oтличаться oт давления на метеoстанции, в зависимoсти oт услoвий рельефа (при пoдъёме на 10 м давление пoнижается примернo на 1 мм рт.ст.).